Regional Weather Roundup
Issued by NWS

Home | Current Version | Previous Version | Text Only | Print | Product List | Glossary Off
Versions: 1 2 3 4 5 6 7 8 9 10 11 12 13 14 15 16 17 18 19 20 21 22 23 24 25 26 27 28 29 30 31 32 33 34 35 36 37 38 39 40 41 42 43 44 45 46 47 48 49 50

000
ASUS45 KBOU 270307
RWRCO

WEATHER ROUNDUP FOR COLORADO
NATIONAL WEATHER SERVICE DENVER/BOULDER CO
900 PM MDT TUE MAY 26 2015

NOTE: "FAIR" INDICATES FEW OR NO CLOUDS BELOW 12000 FEET WITH NO
SIGNIFICANT WEATHER AND/OR OBSTRUCTIONS TO VISIBILITY.

COZ001>005-013-030-031-270400-
...NORTHWEST COLORADO...

CITY           SKY/WX    TMP DP  RH WIND       PRES   REMARKS
CRAIG          CLOUDY    49  43  80 S10       30.10F
HAYDEN         CLOUDY    46  39  76 N3        30.12F
MEEKER         CLOUDY    48  45  89 NE3       30.13F
MOUNT WERNER   NOT AVBL
STEAMBOAT SPGS CLOUDY    47  43  85 E3        30.13F
WALDEN         PTCLDY    43  36  75 SW7       30.17F
$$

COZ006>008-011-270400-
...WEST CENTRAL VALLEYS...

CITY           SKY/WX    TMP DP  RH WIND       PRES   REMARKS
GRAND JUNCTION LGT RAIN  55  49  80 NE12      30.09R
MONTROSE       MOCLDY    54  48  80 W6        30.16R
EAGLE          CLOUDY    54  43  66 W8        30.17S
RIFLE          MOCLDY    52  48  86 W5        30.12R
DELTA          CLOUDY    58  49  72 MISG      30.14R
NUCLA          MOCLDY    54  46  76 SW3       30.16S
$$

COZ017>023-064>068-270400-
...SOUTHWEST COLORADO...

CITY           SKY/WX    TMP DP  RH WIND       PRES   REMARKS
DURANGO        MOCLDY    58  38  47 W18G29    30.16R THUNDER
CORTEZ         MOCLDY    56  46  69 SE7       30.10R
PAGOSA SPRINGS PTCLDY    51  41  68 CALM      30.21R
TELLURIDE      MOCLDY    46  36  67 CALM      30.29R
WOLF CREEK PAS NOT AVBL
$$

COZ009-010-012-014-032>034-037-058>063-270400-
...CENTRAL COLORADO...

CITY           SKY/WX    TMP DP  RH WIND       PRES   REMARKS
ASPEN          NOT AVBL
BUENA VISTA    MOCLDY    51  34  52 W16       30.18S
COPPER MTN     CLOUDY    37  30  75 SW8       30.36S
BERTHOUD PASS  CLOUDY    28  21  74 NW8       30.38S WCI  20
COTTONWOOD PAS MOCLDY    46  32  57 W5        30.26F
GUNNISON       PTCLDY    50  37  62 SE3       30.24R
KREMMLING      CLOUDY    50  39  66 CALM      30.18S
LEADVILLE      MOCLDY    39  35  86 NW3       30.26S
MONARCH PASS   MOCLDY    32  30  93 W41       30.43F FOG     WCI  16
SALIDA         MOCLDY    54  37  51 SW8       30.24R
SUNLIGHT       MOCLDY    36  36 100 CALM      30.33S
WILKERSON PASS MOCLDY    36  32  87 SW5       30.35S
$$

COZ069>075-270400-
...SAN LUIS VALLEY/SANGRE DE CRISTO MOUNTAINS...

CITY           SKY/WX    TMP DP  RH WIND       PRES   REMARKS
ALAMOSA        PTCLDY    50  35  56 NW13      30.16S
LA VETA PASS   MOCLDY   N/A N/A N/A MISG      30.31R
SAGUACHE       CLOUDY    45  43  93 N5        30.21F
$$

COZ035-036-038>040-270400-
...NORTHERN COLORADO FRONT RANGE...

CITY           SKY/WX    TMP DP  RH WIND       PRES   REMARKS
DENVER INTL AP MOCLDY    58  45  62 SE5       30.05S
DMNS CITY PARK   N/A     58  44  58 S5        30.06R
AURORA         LGT RAIN  56  49  74 S13       30.08R
FRONT RANGE AP MOCLDY    59  52  77 CALM      30.07R
ERIE MUNI ARPT MOCLDY    58  45  62 S5        30.04R
BOULDER MUN AP MOCLDY    61  36  39 SW6       30.04R
CENTENNIAL     CLOUDY    54  47  77 SE9       30.08R THUNDER
BROOMFIELD     MOCLDY    55  46  71 VRB5      30.06S
FORT COLLINS   PTCLDY    57  46  67 E6        30.04S
LONGMONT       PTCLDY    59  49  68 NE3       30.06R
$$

COZ041-046-047-076>085-087-088-270400-
...PIKES PEAK/PALMER DIVIDE AND SOUTHERN FOOTHILLS...

CITY           SKY/WX    TMP DP  RH WIND       PRES   REMARKS
COLO. SPRINGS  TSTM      52  46  80 SW7       30.15R
A. F. ACADEMY  TSTM      49  43  80 E16       30.12F
ELLICOTT       CLOUDY   N/A N/A N/A W20       30.12R THUNDER
FALCON         TSTM      54  46  74 SW20G25   30.18R
FORT CARSON    TSTM      52  47  85 SE8       30.10R
LIMON          PTCLDY    52  49  89 CALM      30.07R
MONUMENT HILL  CLOUDY    50  43  76 E7        30.16R THUNDER
TRINIDAD       CLOUDY    57  50  77 SE8       30.08R
$$

COZ042>045-048>051-090-091-270400-
...NORTHEAST COLORADO...

CITY           SKY/WX    TMP DP  RH WIND       PRES   REMARKS
GREELEY ARPT   PTCLDY    55  48  76 E6        30.03R
AKRON          CLOUDY    57  50  77 SE9       30.04S
BURLINGTON     PTCLDY    57  52  83 SE7       30.04R
WRAY           PTCLDY    61  52  72 E6        30.02R
STERLING       CLOUDY    61  52  72 E3        30.01R
HOLYOKE        PTCLDY    59  52  77 SE7       30.03R
FORT MORGAN    CLOUDY    57  50  77 MISG      30.03S
$$

COZ086-089-092>099-270400-
...SOUTHEAST COLORADO...

CITY           SKY/WX    TMP DP  RH WIND       PRES   REMARKS
PUEBLO         TSTM      60  52  74 E14       30.05R
LA JUNTA       CLOUDY    66  52  60 SE8       30.04R THUNDER
LAMAR          MOCLDY    64  54  69 SE8       29.99R
SPRINGFIELD      N/A     61  51  70 S10       30.04R
$$


USA.gov is the U.S. government's official web portal to all federal, state and local government web resources and services.